Regional Weather Roundup
Issued by NWS Grand Forks, ND

Home | Current Version | Previous Version | Graphics & Text | Print | Product List | Glossary On
Versions: 1 2 3 4 5 6 7 8 9 10 11 12 13 14 15 16 17 18 19 20 21 22 23 24 25 26 27 28 29 30 31 32 33 34 35 36 37 38 39 40 41 42 43 44 45 46 47 48 49 50
000
ASUS43 KFGF 070010
RWRFGF
PRAIRIE TO PINES  WEATHER ROUNDUP
NATIONAL WEATHER SERVICE EASTERN NORTH DAKOTA/GRAND FORKS ND
600 PM CST FRI MAR 06 2015

 **SATELLITE DATA USED TO AUGMENT SKY COVER AT AUTOMATED STATIONS**
 *****  WEATHER ACROSS EASTERN NORTH DAKOTA  *****

CITY           SKY/WX    TMP DP  RH WIND       PRES   REMARKS
GRAND FORKS    CLOUDY    36  22  56 SW9       29.94F
6HR MIN TEMP:  32; 6HR MAX TEMP:  39;

GRAND FRKS AFB CLOUDY    37  21  53 SW10      29.92F
GRAND FRKS NWS   N/A     34 N/A N/A SW7         N/A
DEVILS LAKE    CLOUDY    34  25  69 SW12      29.89F
6HR MIN TEMP:  28; 6HR MAX TEMP:  34;

FARGO          MOCLDY    37  23  56 SW10      30.00F
WAHPETON ARPT  PTCLDY    34  23  64 SW6       30.03F
$$

 ***** WEATHER ACROSS CENTRAL AND WESTERN NORTH DAKOTA  *****

CITY           SKY/WX    TMP DP  RH WIND       PRES   REMARKS
BISMARCK       MOCLDY    45  25  45 SW6       29.96S
6HR MIN TEMP:  36; 6HR MAX TEMP:  48;

MINOT          MOCLDY    41  29  62 W17       29.88R
6HR MIN TEMP:  33; 6HR MAX TEMP:  42;

JAMESTOWN      MOCLDY    35  22  58 S9        29.93F
6HR MIN TEMP:  30; 6HR MAX TEMP:  37;

MINOT AFB      PTCLDY    38  35  86 W16       29.86R
GARRISON         N/A     42  30  62 W15       29.93R
WILLISTON      CLOUDY    44  31  60 NW14      30.00R
6HR MIN TEMP:  37; 6HR MAX TEMP:  49; 6HR PCP: TRACE;

DICKINSON      PTCLDY    50  25  37 NW10      29.97S
6HR MIN TEMP:  45; 6HR MAX TEMP:  56;

HETTINGER      PTCLDY    51  22  31 NW16      30.01R
6HR MIN TEMP:  45; 6HR MAX TEMP:  57;

$$

 *****  OTHER AIRPORT OBSERVATIONS IN OUR AREA  *****

CITY           SKY/WX    TMP DP  RH WIND       PRES   REMARKS
WALHALLA       MIX PCPN  32  30  93 SW17G32   29.85F WCI  21
GRAFTON AIRPOR NOT AVBL
VALLEY CITY AR CLOUDY    36  25  64 SW10      29.96F
CANDO          CLOUDY    32  27  80 SW14      29.85F WCI  22
CAVALIER APRT  FAIR      36  25  64 SW10      29.87F
GWINNER        PTCLDY    36  27  69 SW8       30.02F
SHEYENNE NWR     N/A     36  22  56 SW3       29.95S
ROLLA          CLOUDY    28  28 100 SW13      29.82F WCI  18
 ***** THE ABOVE OBSERVATIONS ARE NON NWS ARE NOT QUALITY
       CONTROLLED AND MAY MIS-REPORT RAIN FOR SNOW...
$$

  *****  WEATHER ACROSS NORTHERN MINNESOTA  *****

CITY           SKY/WX    TMP DP  RH WIND       PRES   REMARKS
FLAG ISLAND    PTCLDY    28  18  64 SW15      29.86F WCI  17
WARROAD        PTCLDY    28  19  69 SW8       29.90F WCI  20
ROSEAU         PTCLDY    30  21  69 SW9       29.90F WCI  22
HALLOCK        NOT AVBL
THF RVR FALLS  MOCLDY    30  21  69 S9        29.94F WCI  22
6HR MIN TEMP:  25; 6HR MAX TEMP:  32;

BAUDETTE       PTCLDY    30  13  49 SW9       29.88F WCI  22
6HR MIN TEMP:  25; 6HR MAX TEMP:  32;

WASKISH        CLEAR     27  16  63 SW3       29.94S
CROOKSTON      MOCLDY    34  23  64 SW12      29.97S
STEPHEN NDAWN    N/A     34  27  75 S12         N/A
GREENBUSH NDAW   N/A     30  21  69 S12         N/A  WCI  21
$$
  *****  WEATHER ACROSS CENTRAL AND WEST MINNESOTA  *****

CITY           SKY/WX    TMP DP  RH WIND       PRES   REMARKS
FOSSTON        PTCLDY    27  19  74 S10       29.97F WCI  17
BEMIDJI        CLEAR     28  13  51 SW6       29.96F WCI  22
PARK RAPIDS    PTCLDY    28  16  60 SW5       29.98F WCI  23
6HR MIN TEMP:  28; 6HR MAX TEMP:  33; 6HR PCP: TRACE;

ELBOW LAKE     FAIR      30  24  78 SW6       30.04S WCI  24
6HR MIN TEMP:  26; 6HR MAX TEMP:  33;

WADENA         PTCLDY    27  16  63 W6        30.01S WCI  20
DETROIT LAKES  PTCLDY    32  19  59 SW3       30.01S
MOORHEAD       PTCLDY    37  21  52 SW10      30.02S
FERGUS FALLS   CLEAR     32  21  64 SW7       30.06S
MORRIS MN      CLEAR     34  23  64 W8        30.05F
STAPLES        CLEAR     28  16  59 W6        30.02S WCI  22
$$
  *****  WEATHER ELSEWHERE ACROSS MINNESOTA  *****

CITY           SKY/WX    TMP DP  RH WIND       PRES   REMARKS
DULUTH         CLEAR     30  10  43 W9        29.95S WCI  22
6HR MIN TEMP:  27; 6HR MAX TEMP:  33;

INTRNTL FALLS  CLOUDY    30   8  39 W3        29.89F
6HR MIN TEMP:  25; 6HR MAX TEMP:  31;

ELY            CLEAR     28   7  40 W7        29.91S WCI  21
CLOQUET        CLEAR     30   7  37 W5        29.97S
WHEATON        PTCLDY    32  21  64 SW6       30.07F
BRAINERD       PTCLDY    31  10  41 W5        30.01S
6HR MIN TEMP:  29; 6HR MAX TEMP:  34;

HIBBING        CLEAR     29   7  39 W3        29.94F
6HR MIN TEMP:  26; 6HR MAX TEMP:  33;

ALEXANDRIA     CLEAR     27  18  69 W8        30.04S WCI  19
6HR MIN TEMP:  27; 6HR MAX TEMP:  31;

SAINT CLOUD    PTCLDY    31  16  54 W9        30.04F WCI  23
6HR MIN TEMP:  30; 6HR MAX TEMP:  34;

MINNEAPOLIS    MOCLDY    34  17  50 W10       30.06R
6HR MIN TEMP:  32; 6HR MAX TEMP:  39;

$$

  *****  WEATHER ACROSS SOUTH DAKOTA  *****

CITY           SKY/WX    TMP DP  RH WIND       PRES   REMARKS
SIOUX FALLS    PTCLDY    42  23  46 NW5       30.08F
6HR MIN TEMP:  42; 6HR MAX TEMP:  46;

BROOKINGS      NOT AVBL
WATERTOWN      CLOUDY    33  24  69 SW6       30.05F
6HR MIN TEMP:  29; 6HR MAX TEMP:  35;

HURON          MOCLDY    40  23  50 E5        30.06F
6HR MIN TEMP:  34; 6HR MAX TEMP:  44;

SISSETON       NOT AVBL
ABERDEEN       CLOUDY    37  27  67 S7        30.04F
6HR MIN TEMP:  35; 6HR MAX TEMP:  43;

MITCHELL       CLEAR     44  21  40 E7        30.07F
PIERRE         CLEAR     48  25  40 SE8       30.00F
6HR MIN TEMP:  44; 6HR MAX TEMP:  54;

MOBRIDGE       CLEAR     46  23  40 SE7       29.96S
RAPID CITY     CLEAR     54  21  27 NW18      30.08R
6HR MIN TEMP:  52; 6HR MAX TEMP:  59;

$$

  *****  SOME WEATHER IN NEARBY STATES *****

CITY           SKY/WX    TMP DP  RH WIND       PRES   REMARKS
GLASGOW MT     PTCLDY    48  27  44 N17G26    30.07R
6HR MIN TEMP:  48; 6HR MAX TEMP:  57;

GREAT FALLS MT MOSUNNY   54  19  25 W14       30.16S
6HR MIN TEMP:  53; 6HR MAX TEMP:  60;

CHEYENNE WY    CLEAR     45  20  36 NW10      30.22F
6HR MIN TEMP:  44; 6HR MAX TEMP:  49;

SCOTTSBLUFF NE CLEAR     53  18  25 W15G25    30.19S
6HR MIN TEMP:  53; 6HR MAX TEMP:  57;

OMAHA NE       PTCLDY    58  16  19 VRB7      30.09F
6HR MIN TEMP:  48; 6HR MAX TEMP:  63;

DES MOINES IA  PTCLDY    49  23  36 W7        30.10S
6HR MIN TEMP:  43; 6HR MAX TEMP:  56;

DAVENPORT IA   PTCLDY    34  23  64 S8        30.15F
6HR MIN TEMP:  26; 6HR MAX TEMP:  37;

CHICAGO IL     PTCLDY    25  16  68 SW16G24   30.17F WCI  12
6HR MIN TEMP:  21; 6HR MAX TEMP:  27;

EAU CLAIRE WI  PTCLDY    29  17  61 W6        30.03R WCI  23
6HR MIN TEMP:  25; 6HR MAX TEMP:  32;

LA CROSSE WI   PTCLDY    33  22  63 S8        30.07R
6HR MIN TEMP:  28; 6HR MAX TEMP:  36;

$$

  *****  SOME NATIONAL WEATHER *****

CITY           SKY/WX    TMP DP  RH WIND       PRES   REMARKS
LA GUARDIA NY  MOCLDY    25   7  46 S12       30.41F WCI  14
6HR MIN TEMP:  22; 6HR MAX TEMP:  28;

RALEIGH NC     PTCLDY    32  10  40 CALM      30.43R
6HR MIN TEMP:  32; 6HR MAX TEMP:  37;

ATLANTA GA     MOCLDY    45  28  51 NW9       30.38R
6HR MIN TEMP:  45; 6HR MAX TEMP:  50;

NEW ORLEANS LA MOCLDY    49  20  31 N6        30.42R
6HR MIN TEMP:  45; 6HR MAX TEMP:  53;

OKLAHOMA CITY  CLEAR     53  26  35 S15       30.35S
6HR MIN TEMP:  50; 6HR MAX TEMP:  57;

ALBUQUERQUE NM SUNNY     58   4  11 S3        30.26F
6HR MIN TEMP:  47; 6HR MAX TEMP:  60;

SALT LAKE CITY MOSUNNY   53  24  32 N10       30.38F
6HR MIN TEMP:  46; 6HR MAX TEMP:  55;




USA.gov is the U.S. government's official web portal to all federal, state and local government web resources and services.